TimeCDT,TemperatureF,Dew PointF,Humidity,Sea Level PressureIn,VisibilityMPH,Wind Direction,Wind SpeedMPH,Gust SpeedMPH,PrecipitationIn,Events,Conditions,WindDirDegrees,DateUTC
12:15 AM,68.0,60.8,78,29.77,10.0,SSE,13.8,19.6,N/A,,Clear,150,2013-09-28 05:15:00
12:35 AM,69.8,60.8,73,29.76,10.0,SSE,16.1,25.3,N/A,,Clear,150,2013-09-28 05:35:00
12:55 AM,69.8,60.8,73,29.76,10.0,SSE,12.7,19.6,N/A,,Clear,160,2013-09-28 05:55:00
1:15 AM,68.0,60.8,78,29.75,10.0,SSE,12.7,19.6,N/A,,Clear,160,2013-09-28 06:15:00
1:35 AM,68.0,60.8,78,29.73,10.0,SSE,18.4,24.2,N/A,,Clear,160,2013-09-28 06:35:00
1:55 AM,68.0,60.8,78,29.74,10.0,SSE,13.8,20.7,N/A,,Clear,150,2013-09-28 06:55:00
2:15 AM,68.0,60.8,78,29.73,10.0,SSE,13.8,19.6,N/A,,Clear,160,2013-09-28 07:15:00
2:35 AM,69.8,60.8,73,29.72,10.0,SSE,17.3,-,N/A,,Clear,160,2013-09-28 07:35:00
2:55 AM,68.0,60.8,78,29.72,-9999.0,SSE,15.0,23.0,N/A,,Scattered Clouds,150,2013-09-28 07:55:00
3:15 AM,68.0,60.8,78,29.71,10.0,SSE,15.0,21.9,N/A,,Scattered Clouds,150,2013-09-28 08:15:00
3:35 AM,68.0,60.8,78,29.70,10.0,SSE,16.1,26.5,N/A,,Mostly Cloudy,150,2013-09-28 08:35:00
3:55 AM,68.0,60.8,78,29.68,10.0,SSE,18.4,26.5,N/A,,Overcast,160,2013-09-28 08:55:00
4:15 AM,69.8,60.8,73,29.67,10.0,SSE,19.6,27.6,N/A,,Overcast,160,2013-09-28 09:15:00
4:35 AM,69.8,59.0,68,29.69,10.0,South,13.8,26.5,N/A,,Overcast,170,2013-09-28 09:35:00
4:55 AM,68.0,60.8,78,29.71,7.0,South,12.7,23.0,N/A,Rain,Light Rain,190,2013-09-28 09:55:00
5:15 AM,68.0,60.8,78,29.70,10.0,South,11.5,17.3,N/A,,Overcast,170,2013-09-28 10:15:00
5:35 AM,66.2,62.6,88,29.70,4.0,South,12.7,-,N/A,Rain,Light Rain,180,2013-09-28 10:35:00
5:55 AM,66.2,62.6,88,29.71,5.0,South,13.8,-,0.03,,Overcast,180,2013-09-28 10:55:00
6:15 AM,64.4,64.4,100,29.71,3.0,South,21.9,-,N/A,Rain,Rain,190,2013-09-28 11:15:00
6:35 AM,64.4,64.4,100,29.71,3.0,South,17.3,27.6,N/A,Rain,Light Rain,190,2013-09-28 11:35:00
6:55 AM,64.4,64.4,100,29.71,3.0,SSW,20.7,28.8,0.15,,Overcast,200,2013-09-28 11:55:00
7:15 AM,59.0,59.0,100,29.70,4.0,Calm,Calm,12.7,N/A,Rain,Light Rain,0,2013-09-28 12:15:00
7:35 AM,59.0,59.0,100,29.69,8.0,WNW,6.9,-,N/A,,Light Drizzle,290,2013-09-28 12:35:00
7:55 AM,59.0,59.0,100,29.73,8.0,West,12.7,-,0.03,,Light Drizzle,260,2013-09-28 12:55:00
8:15 AM,55.4,53.6,94,29.76,10.0,West,18.4,25.3,N/A,,Overcast,280,2013-09-28 13:15:00
8:35 AM,53.6,53.6,100,29.76,10.0,WNW,18.4,25.3,N/A,,Overcast,290,2013-09-28 13:35:00
8:55 AM,53.6,51.8,94,29.78,9.0,WNW,21.9,27.6,0.01,,Overcast,290,2013-09-28 13:55:00
9:15 AM,53.6,51.8,94,29.79,4.0,WNW,20.7,-,N/A,,Light Drizzle,300,2013-09-28 14:15:00
9:35 AM,53.6,51.8,94,29.80,1.5,WNW,13.8,23.0,N/A,,Light Drizzle,290,2013-09-28 14:35:00
9:55 AM,53.6,51.8,94,29.82,2.5,WNW,13.8,25.3,N/A,,Light Drizzle,290,2013-09-28 14:55:00
10:15 AM,51.8,51.8,100,29.84,2.0,West,18.4,27.6,N/A,Rain,Light Rain,280,2013-09-28 15:15:00
10:35 AM,53.6,51.8,94,29.84,9.0,WNW,15.0,25.3,N/A,,Light Drizzle,290,2013-09-28 15:35:00
10:55 AM,51.8,51.8,100,29.85,5.0,WNW,18.4,24.2,N/A,,Light Drizzle,290,2013-09-28 15:55:00
11:15 AM,51.8,50.0,94,29.85,10.0,WNW,16.1,27.6,N/A,,Overcast,300,2013-09-28 16:15:00
11:35 AM,53.6,50.0,88,29.85,10.0,WNW,16.1,24.2,N/A,,Overcast,300,2013-09-28 16:35:00
11:55 AM,55.4,51.8,88,29.86,10.0,WNW,19.6,25.3,N/A,,Overcast,300,2013-09-28 16:55:00
12:15 PM,55.4,50.0,82,29.87,10.0,WNW,20.7,28.8,N/A,,Mostly Cloudy,300,2013-09-28 17:15:00
12:35 PM,55.4,50.0,82,29.89,10.0,WNW,15.0,24.2,N/A,,Mostly Cloudy,300,2013-09-28 17:35:00
12:55 PM,55.4,48.2,77,29.89,10.0,WNW,18.4,27.6,N/A,,Overcast,290,2013-09-28 17:55:00
1:15 PM,55.4,48.2,77,29.90,10.0,WNW,18.4,25.3,N/A,,Overcast,300,2013-09-28 18:15:00
1:35 PM,57.2,48.2,72,29.90,10.0,WNW,18.4,25.3,N/A,,Overcast,300,2013-09-28 18:35:00
1:55 PM,57.2,46.4,67,29.91,10.0,WNW,16.1,26.5,N/A,,Overcast,290,2013-09-28 18:55:00
2:15 PM,57.2,46.4,67,29.91,10.0,WNW,16.1,23.0,N/A,,Overcast,300,2013-09-28 19:15:00
2:35 PM,59.0,46.4,63,29.91,10.0,WNW,15.0,25.3,N/A,,Scattered Clouds,290,2013-09-28 19:35:00
2:55 PM,60.8,46.4,59,29.91,10.0,West,17.3,-,N/A,,Partly Cloudy,270,2013-09-28 19:55:00
3:15 PM,60.8,46.4,59,29.92,10.0,NW,17.3,-,N/A,,Mostly Cloudy,310,2013-09-28 20:15:00
3:35 PM,60.8,44.6,55,29.92,10.0,West,16.1,25.3,N/A,,Scattered Clouds,280,2013-09-28 20:35:00
3:55 PM,60.8,44.6,55,29.92,10.0,WNW,13.8,24.2,N/A,,Scattered Clouds,300,2013-09-28 20:55:00
4:15 PM,60.8,42.8,52,29.93,10.0,WNW,15.0,23.0,N/A,,Partly Cloudy,300,2013-09-28 21:15:00
4:35 PM,60.8,42.8,52,29.93,10.0,WNW,15.0,20.7,N/A,,Clear,300,2013-09-28 21:35:00
4:55 PM,62.6,42.8,48,29.93,10.0,WNW,16.1,-,N/A,,Clear,290,2013-09-28 21:55:00
5:15 PM,62.6,41.0,45,29.94,10.0,WNW,13.8,20.7,N/A,,Clear,300,2013-09-28 22:15:00
5:35 PM,62.6,41.0,45,29.94,10.0,WNW,12.7,-,N/A,,Clear,290,2013-09-28 22:35:00
5:55 PM,62.6,41.0,45,29.94,9.0,WNW,13.8,20.7,N/A,,Clear,300,2013-09-28 22:55:00
6:15 PM,62.6,41.0,45,29.95,10.0,West,10.4,18.4,N/A,,Clear,280,2013-09-28 23:15:00
6:35 PM,60.8,41.0,48,29.96,10.0,West,8.1,13.8,N/A,,Clear,260,2013-09-28 23:35:00
6:55 PM,59.0,42.8,55,29.97,10.0,West,6.9,12.7,N/A,,Clear,270,2013-09-28 23:55:00
7:15 PM,57.2,42.8,59,29.98,10.0,West,6.9,-,N/A,,Clear,270,2013-09-29 00:15:00
7:35 PM,55.4,42.8,63,29.98,10.0,West,6.9,-,N/A,,Clear,270,2013-09-29 00:35:00
7:55 PM,53.6,42.8,67,29.99,10.0,West,5.8,-,N/A,,Clear,260,2013-09-29 00:55:00
8:15 PM,51.8,42.8,71,29.99,10.0,West,8.1,-,N/A,,Clear,260,2013-09-29 01:15:00
8:35 PM,53.6,42.8,67,30.00,10.0,West,6.9,-,N/A,,Clear,260,2013-09-29 01:35:00
8:55 PM,51.8,42.8,71,30.01,10.0,West,8.1,-,N/A,,Clear,270,2013-09-29 01:55:00
9:15 PM,51.8,42.8,71,30.01,10.0,West,6.9,-,N/A,,Clear,260,2013-09-29 02:15:00
9:35 PM,50.0,42.8,76,30.01,10.0,WSW,5.8,-,N/A,,Clear,250,2013-09-29 02:35:00
9:55 PM,50.0,42.8,76,30.01,10.0,WSW,5.8,-,N/A,,Clear,240,2013-09-29 02:55:00
10:15 PM,51.8,41.0,67,30.01,10.0,SW,5.8,-,N/A,,Clear,230,2013-09-29 03:15:00
10:35 PM,50.0,41.0,71,30.02,10.0,SW,6.9,-,N/A,,Clear,220,2013-09-29 03:35:00
10:55 PM,50.0,41.0,71,30.02,10.0,SW,5.8,-,N/A,,Clear,220,2013-09-29 03:55:00
11:15 PM,50.0,41.0,71,30.02,10.0,SW,5.8,-,N/A,,Clear,220,2013-09-29 04:15:00
11:35 PM,48.2,41.0,76,30.02,-9999.0,SW,6.9,-,N/A,,Clear,220,2013-09-29 04:35:00
11:55 PM,48.2,41.0,76,30.02,10.0,SW,6.9,-,N/A,,Clear,220,2013-09-29 04:55:00